Weather History for Cold Bay, AK

Change the Weather History Date:

Monday, December 30, 2013

  Actual Average Record
Temperature  
Mean Temperature 39 °F 30 °F  
Max Temperature 41 °F 34 °F 47 °F (1992)
Min Temperature 36 °F 25 °F -1 °F (1979)
Degree Days  
Heating Degree Days 26 36  
Month to date heating degree days 801 1015  
Since 1 July heating degree days 3317 4041  
Cooling Degree Days 0    
Month to date cooling degree days 0  
Year to date cooling degree days 0  
Moisture  
Dew Point 35 °F    
Average Humidity 86    
Maximum Humidity 100    
Minimum Humidity 68    
Precipitation  
Precipitation 0.03 in 0.13 in 0.76 in (1994)
Month to date precipitation 3.80 4.34  
Year to date precipitation 45.92 41.55  
Snow  
Snow 0.00 in 0.40 in 3.20 in (2012)
Month to date snowfall 7.0 12.1  
Since 1 July snowfall 10.6 24.7  
Snow Depth 0.00 in    
Sea Level Pressure  
Sea Level Pressure 29.25 in    
Wind  
Wind Speed 13 mph (SSE)    
Max Wind Speed 26 mph    
Max Gust Speed 33 mph    
Visibility 10 miles    
Events Rain    
T = Trace of Precipitation, MM = Missing Value Source: NWS Daily Summary

Daily Weather History Graph

Daily Weather History Graph

Search for Another Location

Airport:

Trip Planner

Search our weather history database for the weather conditions in past years. The results will help you decide how hot, cold, wet, or windy it might be!

Date:

Astronomy

Dec. 30, 2013 Rise Set
Actual Time 10:17 AM AKST 5:30 PM AKST
Civil Twilight 9:31 AM AKST 6:15 PM AKST
Nautical Twilight 8:44 AM AKST 7:03 PM AKST
Astronomical Twilight 7:59 AM AKST 7:48 PM AKST
Moon 8:11 AM AKST (12/30) 4:23 PM AKST (12/30)
Length of Visible Light 8h 44m
Length of Day
7h 12m
Waning Crescent, 4% of the Moon is Illuminated
Dec 30
Waning Crescent
Jan 1
New
Jan 7
First Quarter
Jan 15
Full
Jan 23
Last Quarter

Hourly Weather History & Observations

Time (AKST) Temp. Windchill Dew Point Humidity Pressure Visibility Wind Dir Wind Speed Gust Speed Precip Events Conditions
12:53 AM 39.9 °F 30.8 °F 35.1 °F 83% 29.29 in 10.0 mi ESE 18.4 mph - N/A   Overcast
1:42 AM 39.2 °F 29.0 °F 35.6 °F 87% 29.27 in 10.0 mi ESE 21.9 mph - 0.00 in   Overcast
1:50 AM 39.2 °F 29.3 °F 35.6 °F 87% 29.26 in 10.0 mi ESE 20.7 mph 26.5 mph 0.00 in   Overcast
1:53 AM 39.9 °F 30.2 °F 35.1 °F 83% 29.27 in 10.0 mi SE 20.7 mph 27.6 mph 0.00 in   Overcast
2:00 AM 39.2 °F 29.6 °F 35.6 °F 87% 29.26 in 10.0 mi SE 19.6 mph - N/A   Overcast
2:53 AM 39.0 °F 27.8 °F 34.0 °F 82% 29.24 in 10.0 mi ESE 26.5 mph 33.4 mph N/A   Overcast
3:53 AM 39.0 °F 29.3 °F 35.1 °F 86% 29.24 in 10.0 mi SE 19.6 mph 27.6 mph N/A   Overcast
4:36 AM 39.2 °F 29.3 °F 35.6 °F 87% 29.23 in 10.0 mi ESE 20.7 mph - N/A   Overcast
4:43 AM 39.2 °F 30.2 °F 35.6 °F 87% 29.23 in 10.0 mi ESE 17.3 mph 26.5 mph N/A   Overcast
4:53 AM 39.0 °F 29.3 °F 36.0 °F 89% 29.23 in 10.0 mi ESE 19.6 mph 27.6 mph N/A   Overcast
5:30 AM 39.2 °F 29.6 °F 37.4 °F 93% 29.22 in 10.0 mi SE 19.6 mph - N/A   Overcast
5:53 AM 39.0 °F 29.0 °F 37.0 °F 93% 29.21 in 10.0 mi ESE 20.7 mph - 0.01 in   Overcast
6:15 AM 39.2 °F 29.3 °F 37.4 °F 93% 29.20 in 10.0 mi SE 20.7 mph - N/A   Overcast
6:32 AM 39.2 °F 30.5 °F 37.4 °F 93% 29.20 in 10.0 mi SE 16.1 mph - N/A   Overcast
6:50 AM 39.2 °F 31.6 °F 37.4 °F 93% 29.20 in 10.0 mi SE 12.7 mph - N/A   Overcast
6:53 AM 39.9 °F 32.5 °F 37.0 °F 89% 29.20 in 10.0 mi SE 12.7 mph - N/A   Overcast
7:18 AM 39.2 °F 33.0 °F 37.4 °F 93% 29.20 in 10.0 mi SE 9.2 mph - N/A   Overcast
7:27 AM 39.2 °F 31.6 °F 37.4 °F 93% 29.20 in 9.0 mi SE 12.7 mph - 0.00 in Rain Light Rain
7:44 AM 39.2 °F 33.6 °F 37.4 °F 93% 29.20 in 10.0 mi SSE 8.1 mph - 0.01 in Rain Light Rain
7:53 AM 39.0 °F 31.8 °F 37.0 °F 93% 29.21 in 10.0 mi SSE 11.5 mph - 0.01 in   Mostly Cloudy
8:53 AM 37.9 °F 32.1 °F 35.1 °F 89% 29.21 in 10.0 mi SSE 8.1 mph - N/A   Overcast
9:16 AM 37.4 °F 34.9 °F 37.4 °F 100% 29.21 in 10.0 mi South 3.5 mph - N/A   Overcast
9:53 AM 39.0 °F 32.8 °F 35.1 °F 86% 29.24 in 10.0 mi WSW 9.2 mph - 0.00 in Rain Light Rain
10:53 AM 39.0 °F 32.3 °F 36.0 °F 89% 29.26 in 10.0 mi WSW 10.4 mph - 0.01 in   Overcast
11:53 AM 39.0 °F 31.8 °F 34.0 °F 82% 29.27 in 10.0 mi WSW 11.5 mph - N/A   Mostly Cloudy
12:53 PM 39.9 °F 32.9 °F 35.1 °F 83% 29.30 in 10.0 mi SSW 11.5 mph - N/A   Mostly Cloudy
1:53 PM 39.9 °F 32.9 °F 33.1 °F 77% 29.30 in 10.0 mi SW 11.5 mph - N/A   Mostly Cloudy
2:00 PM 39.2 °F 33.6 °F 33.8 °F 81% 29.29 in 10.0 mi SW 8.1 mph - N/A   Mostly Cloudy
2:53 PM 41.0 °F 37.1 °F 34.0 °F 76% 29.29 in 10.0 mi SE 5.8 mph - N/A   Mostly Cloudy
3:53 PM 41.0 °F 35.8 °F 35.1 °F 79% 29.29 in 10.0 mi South 8.1 mph - N/A   Overcast
4:53 PM 39.9 °F 35.8 °F 35.1 °F 83% 29.28 in 10.0 mi ESE 5.8 mph - N/A   Overcast
5:53 PM 37.9 °F 32.1 °F 33.1 °F 83% 29.29 in 10.0 mi SSE 8.1 mph - N/A   Overcast
6:53 PM 39.0 °F 30.6 °F 32.0 °F 76% 29.28 in 10.0 mi SE 15.0 mph 18.4 mph N/A   Overcast
7:53 PM 37.9 °F 32.1 °F 33.1 °F 83% 29.27 in 10.0 mi ESE 8.1 mph - N/A   Overcast
8:53 PM 36.0 °F 28.0 °F 30.0 °F 79% 29.26 in 10.0 mi SE 11.5 mph - N/A   Scattered Clouds
9:53 PM 37.0 °F 29.8 °F 33.1 °F 86% 29.25 in 10.0 mi SE 10.4 mph - N/A   Mostly Cloudy
10:53 PM 37.0 °F 30.4 °F 33.1 °F 86% 29.24 in 10.0 mi SE 9.2 mph - N/A   Overcast
11:53 PM 37.0 °F 31.0 °F 34.0 °F 89% 29.23 in 10.0 mi SSE 8.1 mph - 0.00 in Rain Light Rain